[[{"header":{"parameterUnit":"m.s-1","parameterCategory":1,"la1":30.2991,"la2":30.254,"lo1":-89.0895,"lo2":-89.0444,"dy":0.0017,"dx":0.0017,"nx":28,"ny":28,"refTime":"2025-07-05T09:00:00:Z","depth":0,"parameterNumber":2,"parameterNumberName":"U-component_of_WINDS"},"data":[0,0,0,0,0,0,0,0,0,0,0,0,0,0,0,0,0,0,0,0,0,0,0,0,0,0,0,0,0,0,0,0,0,0,0,0,0,0,0,0,0,0,0,0,0,0,0,0,0,0,0,0,0,0,0,0,0,0,0.5561,0.5561,0,0.5596,0.5596,0.5597,0.5605,0.5604,0.5604,0.5604,0.5638,0.5639,0.564,0,0,0,0,0,0,0,0,0,0,0,0,0,0.5501,0.5502,0.5561,0.5561,0.5562,0.5596,0.5596,0.5597,0.5605,0.5604,0.5604,0.5604,0.5638,0.5639,0.5641,0,0,0,0,0,0,0,0,0,0,0,0,0,0.553,0.5502,0.5561,0.557,0.5571,0.5596,0.5596,0.5597,0.5605,0.5604,0.5604,0.5604,0.5637,0.5639,0.5641,0.5658,0,0,0.5646,0.5647,0,0,0,0,0,0,0,0,0.5529,0.5533,0.5568,0.5569,0.5571,0.5596,0.5588,0.5617,0.5605,0.5592,0.5604,0.5604,0.5624,0.5627,0.5634,0.566,0.5661,0.5646,0.5647,0.5648,0.5648,0,0,0,0,0,0,0,0.5527,0.5531,0.5575,0.5569,0.557,0.5572,0.5576,0.5593,0.561,0.5593,0.5594,0.5598,0.5625,0.5633,0.5635,0.5662,0.5646,0.5648,0.5649,0.5649,0.5704,0.5705,0,0,0,0,0,0,0.5523,0.5529,0.5574,0.5576,0.5549,0.5574,0.5578,0.5588,0.5609,0.5612,0.5598,0.5598,0.563,0.5633,0.5636,0.5659,0.5648,0.5649,0.565,0.5704,0.5704,0.5705,0,0,0,0,0,0,0.5522,0.5527,0.5572,0.5553,0.5559,0.5575,0.5586,0.5589,0.5597,0.5613,0.5616,0.5603,0.563,0.5634,0.5653,0.566,0.565,0.5652,0.5703,0.5704,0.5705,0.5703,0,0,0,0,0,0,0.552,0.5527,0.5533,0.5553,0.556,0.5588,0.5587,0.559,0.56,0.56,0.5619,0.5621,0.563,0.565,0.5655,0.5662,0.5653,0.5703,0.5704,0.5704,0.5702,0.5703,0.5704,0,0,0,0,0,0.5518,0.5531,0.5534,0.5539,0.5569,0.5589,0.5593,0.5602,0.56,0.5607,0.5618,0.5621,0.5659,0.5652,0.5657,0.5665,0.5702,0.5703,0.5704,0.5702,0.5703,0.5704,0,0,0,0,0,0,0.5511,0.5534,0.5537,0.5557,0.5571,0.559,0.5599,0.5603,0.5618,0.5618,0.5629,0.5633,0.5651,0.566,0.5653,0.5684,0.568,0.5682,0.5677,0.5678,0.5679,0.5676,0.5655,0,0,0,0,0,0.5512,0.5527,0.5546,0.5562,0.5569,0.5583,0.5592,0.5598,0.5613,0.5619,0.5631,0.5645,0.566,0.567,0.5685,0.5704,0.5708,0.5712,0.5713,0.5714,0.5715,0.5726,0.5728,0.5708,0.5708,0.5708,0,0,0.5514,0.5528,0.5537,0.5561,0.5572,0.5587,0.5588,0.5603,0.5614,0.5621,0.564,0.565,0.5666,0.5685,0.5695,0.5693,0.5722,0.5715,0.5715,0.5716,0.5728,0.573,0.5731,0.5709,0.5709,0.5709,0,0,0.5525,0.5537,0.5552,0.5564,0.5582,0.5591,0.5595,0.5614,0.5621,0.564,0.5646,0.5659,0.5685,0.5696,0.5706,0.5722,0.5725,0.5727,0.5731,0.5742,0.5744,0.5745,0.5751,0.5753,0.5728,0.5728,0.5728,0,0.5525,0.5548,0.5559,0.5574,0.5585,0.5593,0.5608,0.5619,0.564,0.5647,0.5646,0.5679,0.569,0.5713,0.5717,0.5724,0.5729,0.5724,0.5743,0.5745,0.5746,0.5752,0.5754,0.5728,0.5728,0.5728,0.5728,0,0.5547,0.5563,0.5572,0.5594,0.5605,0.5621,0.5634,0.5644,0.565,0.566,0.568,0.5694,0.5712,0.5718,0.5723,0.5741,0.574,0.5741,0.5738,0.5748,0.5753,0.5756,0.5728,0.5728,0.5728,0.5728,0,0,0.5553,0.5582,0.5585,0.5595,0.5616,0.5629,0.5644,0.5663,0.5671,0.5686,0.57,0.5722,0.5723,0.5733,0.574,0.575,0.5763,0.575,0.575,0.5751,0.5784,0.5783,0.5785,0.5765,0.5766,0.5766,0.5782,0,0.5567,0.5595,0.5606,0.563,0.5645,0.5653,0.5667,0.5681,0.5691,0.5705,0.5715,0.5731,0.5731,0.5737,0.5748,0.5759,0.5769,0.5758,0.5777,0.5778,0.5773,0.5788,0.5787,0.5802,0.5784,0.5785,0.5785,0,0.5586,0.5602,0.5627,0.5647,0.5653,0.5666,0.5684,0.5697,0.5714,0.572,0.5732,0.5739,0.5756,0.5752,0.5776,0.5768,0.5777,0.5784,0.5784,0.5786,0.5782,0.579,0.5806,0.5808,0.5789,0.5788,0.5788,0,0.5588,0.5616,0.5635,0.5643,0.5667,0.5675,0.5685,0.5702,0.5712,0.5728,0.5735,0.5752,0.5762,0.5775,0.5786,0.5783,0.5809,0.5806,0.5814,0.5814,0.5819,0.5818,0.5836,0.5825,0.5825,0.5825,0.5825,0,0.5602,0.5616,0.5636,0.5647,0.5665,0.5677,0.5694,0.5704,0.5719,0.5733,0.5741,0.5754,0.5768,0.5782,0.5791,0.5809,0.5813,0.5819,0.5821,0.5818,0.5817,0.5823,0.5823,0.5825,0.5825,0.5825,0.5825,0,0.5606,0.562,0.5641,0.5662,0.5668,0.568,0.5698,0.5709,0.572,0.5737,0.5742,0.5758,0.5776,0.5789,0.5811,0.5817,0.5836,0.5838,0.5831,0.5832,0.5839,0.5838,0.5862,0.5866,0.5852,0.5852,0.5852,0,0.5614,0.5626,0.5649,0.5659,0.5669,0.5685,0.5696,0.5709,0.572,0.5741,0.575,0.5768,0.5783,0.5811,0.5825,0.5842,0.5845,0.5852,0.5847,0.5844,0.5845,0.5844,0.5845,0.5852,0.5852,0.5852,0.5852,0,0.5626,0.5632,0.5648,0.5667,0.568,0.5695,0.571,0.5718,0.5734,0.5746,0.5765,0.5777,0.58,0.5818,0.5837,0.5847,0.5853,0.5854,0.5857,0.5854,0.5849,0.5851,0.5832,0.5853,0.5853,0.5853,0.5853,0.5853,0.5632,0.5643,0.5661,0.5679,0.5692,0.5706,0.5718,0.5731,0.5747,0.5767,0.5774,0.5793,0.581,0.5836,0.5847,0.5862,0.5862,0.5866,0.5867,0.5867,0.5867,0.5847,0.5865,0.5865,0.5865,0.5865,0.5865,0,0.5644,0.5656,0.5673,0.5694,0.5708,0.5713,0.573,0.5741,0.5758,0.5774,0.5789,0.5811,0.5829,0.5844,0.5863,0.5872,0.5875,0.5876,0.5875,0.5878,0.5866,0.5862,0.5874,0.5874,0.5874,0.5874,0.5874,0.5874,0.5652,0.5671,0.568,0.5706,0.5718,0.5737,0.5747,0.576,0.5773,0.5797,0.5812,0.5822,0.5838,0.5858,0.5875,0.5879,0.5885,0.5886,0.5891,0.588,0.5878,0.5878,0.5874,0.5887,0.5887,0.5901,0.5901,0.5901]},{"header":{"parameterUnit":"m.s-1","parameterCategory":1,"la1":30.2991,"la2":30.254,"lo1":-89.0895,"lo2":-89.0444,"dy":0.0017,"dx":0.0017,"nx":28,"ny":28,"refTime":"2025-07-05T09:00:00:Z","depth":0,"parameterNumber":3,"parameterNumberName":"V-component_of_WINDS"},"data":[0,0,0,0,0,0,0,0,0,0,0,0,0,0,0,0,0,0,0,0,0,0,0,0,0,0,0,0,0,0,0,0,0,0,0,0,0,0,0,0,0,0,0,0,0,0,0,0,0,0,0,0,0,0,0,0,0,0,-1.5917,-1.5919,0,-1.6112,-1.6115,-1.6117,-1.618,-1.6179,-1.6178,-1.6177,-1.6377,-1.6383,-1.6389,0,0,0,0,0,0,0,0,0,0,0,0,0,-1.56,-1.5605,-1.5917,-1.5919,-1.5922,-1.6112,-1.6115,-1.6117,-1.618,-1.6179,-1.6178,-1.6177,-1.6375,-1.6383,-1.639,0,0,0,0,0,0,0,0,0,0,0,0,0,-1.5761,-1.5607,-1.5917,-1.5976,-1.5983,-1.6112,-1.6115,-1.6118,-1.618,-1.6179,-1.6178,-1.6176,-1.6373,-1.6382,-1.6391,-1.6474,0,0,-1.6419,-1.6423,0,0,0,0,0,0,0,0,-1.5751,-1.5772,-1.5965,-1.5972,-1.5981,-1.612,-1.6076,-1.6238,-1.6181,-1.6106,-1.6177,-1.6176,-1.6293,-1.6309,-1.6348,-1.6484,-1.6492,-1.642,-1.6426,-1.6429,-1.6432,0,0,0,0,0,0,0,-1.574,-1.5764,-1.5994,-1.5968,-1.5977,-1.5994,-1.6015,-1.6107,-1.6204,-1.6112,-1.6117,-1.6139,-1.6297,-1.6339,-1.6353,-1.6495,-1.642,-1.6428,-1.6434,-1.6437,-1.6711,-1.6713,0,0,0,0,0,0,-1.5719,-1.5754,-1.5988,-1.6,-1.586,-1.6,-1.6024,-1.6077,-1.6203,-1.6221,-1.614,-1.6141,-1.6324,-1.6343,-1.6361,-1.6468,-1.6429,-1.6438,-1.6443,-1.6709,-1.6712,-1.6713,0,0,0,0,0,0,-1.5712,-1.5739,-1.598,-1.5879,-1.5911,-1.6007,-1.6066,-1.6081,-1.6124,-1.6225,-1.6242,-1.6165,-1.6324,-1.6348,-1.6446,-1.6476,-1.6442,-1.6451,-1.6707,-1.671,-1.6712,-1.6682,0,0,0,0,0,0,-1.5702,-1.5736,-1.5768,-1.5879,-1.5916,-1.6062,-1.6068,-1.6086,-1.6139,-1.6143,-1.6253,-1.627,-1.6325,-1.6432,-1.6455,-1.6488,-1.6458,-1.6705,-1.6709,-1.6712,-1.6681,-1.6683,-1.6685,0,0,0,0,0,-1.5691,-1.5751,-1.5769,-1.5797,-1.5958,-1.6063,-1.6084,-1.6146,-1.6141,-1.6175,-1.624,-1.6266,-1.6469,-1.6441,-1.6468,-1.6504,-1.6704,-1.6708,-1.6711,-1.668,-1.6683,-1.6685,0,0,0,0,0,0,-1.5641,-1.5767,-1.5788,-1.5886,-1.5964,-1.6074,-1.6118,-1.6147,-1.6227,-1.6227,-1.63,-1.6324,-1.6418,-1.6471,-1.6438,-1.6592,-1.6587,-1.6597,-1.6554,-1.6558,-1.656,-1.6545,-1.6465,0,0,0,0,0,-1.5641,-1.5716,-1.5822,-1.5898,-1.5936,-1.602,-1.6068,-1.6109,-1.6192,-1.6225,-1.6298,-1.6377,-1.6459,-1.6512,-1.6592,-1.6689,-1.6715,-1.6727,-1.6729,-1.6731,-1.6738,-1.6795,-1.6802,-1.6726,-1.6726,-1.6726,0,0,-1.5643,-1.5721,-1.5763,-1.589,-1.5955,-1.6032,-1.6047,-1.6127,-1.6185,-1.6237,-1.6335,-1.6391,-1.6485,-1.6584,-1.663,-1.6631,-1.6765,-1.6736,-1.6736,-1.6743,-1.68,-1.6807,-1.6813,-1.6729,-1.6729,-1.6728,0,0,-1.5685,-1.5751,-1.5823,-1.5888,-1.5986,-1.6042,-1.6059,-1.6165,-1.6205,-1.6304,-1.6346,-1.6416,-1.6554,-1.662,-1.6672,-1.6741,-1.6769,-1.6766,-1.6778,-1.6832,-1.6838,-1.6844,-1.687,-1.6879,-1.6773,-1.6773,-1.6773,0,-1.5674,-1.5791,-1.5855,-1.5934,-1.5989,-1.6041,-1.6115,-1.6175,-1.6294,-1.6332,-1.633,-1.6507,-1.6574,-1.669,-1.6707,-1.6746,-1.6769,-1.6753,-1.6832,-1.6839,-1.6845,-1.6871,-1.688,-1.6772,-1.6772,-1.6772,-1.6772,0,-1.5774,-1.5854,-1.59,-1.6015,-1.6076,-1.6151,-1.6228,-1.6282,-1.6318,-1.6374,-1.6476,-1.6558,-1.6658,-1.6688,-1.6724,-1.6809,-1.6807,-1.6818,-1.6814,-1.685,-1.6876,-1.6886,-1.677,-1.6771,-1.6771,-1.6771,0,0,-1.5788,-1.5939,-1.5955,-1.6009,-1.6122,-1.6186,-1.6265,-1.6362,-1.6407,-1.6488,-1.6557,-1.6675,-1.6686,-1.6745,-1.6789,-1.6837,-1.6889,-1.6843,-1.6846,-1.6849,-1.699,-1.6981,-1.6991,-1.6908,-1.691,-1.6911,-1.6982,0,-1.5845,-1.5988,-1.605,-1.6165,-1.6241,-1.6292,-1.6361,-1.6439,-1.6494,-1.6567,-1.6628,-1.6711,-1.6719,-1.6755,-1.6805,-1.6871,-1.6918,-1.6867,-1.6973,-1.6976,-1.6948,-1.7005,-1.6995,-1.7058,-1.6993,-1.6994,-1.6996,0,-1.593,-1.6013,-1.6135,-1.6241,-1.6276,-1.6336,-1.6432,-1.6501,-1.659,-1.6627,-1.6694,-1.6736,-1.6822,-1.6813,-1.6933,-1.6897,-1.6944,-1.6984,-1.6988,-1.7,-1.6988,-1.7019,-1.7079,-1.7089,-1.7012,-1.701,-1.7009,0,-1.593,-1.6071,-1.6164,-1.6208,-1.6334,-1.6376,-1.643,-1.6518,-1.6574,-1.6657,-1.6694,-1.6786,-1.6837,-1.6908,-1.6975,-1.6962,-1.7089,-1.7085,-1.7123,-1.7121,-1.7148,-1.7145,-1.7217,-1.7177,-1.7177,-1.7176,-1.7176,0,-1.5987,-1.606,-1.6166,-1.6222,-1.6306,-1.6377,-1.6459,-1.6517,-1.6596,-1.6665,-1.6716,-1.678,-1.6864,-1.6939,-1.6992,-1.7084,-1.7106,-1.7139,-1.7153,-1.7135,-1.7131,-1.7167,-1.7165,-1.7179,-1.7178,-1.7178,-1.7177,0,-1.6001,-1.6074,-1.6178,-1.6289,-1.6319,-1.6376,-1.6472,-1.653,-1.6588,-1.6676,-1.67,-1.6792,-1.6884,-1.6957,-1.7076,-1.7112,-1.7209,-1.7224,-1.7179,-1.7186,-1.7221,-1.7217,-1.7318,-1.7336,-1.7283,-1.7283,-1.7284,0,-1.6032,-1.609,-1.6208,-1.6259,-1.6313,-1.6393,-1.6451,-1.6524,-1.6581,-1.6689,-1.6734,-1.6829,-1.691,-1.7054,-1.7131,-1.7224,-1.7241,-1.7271,-1.7255,-1.7237,-1.7243,-1.7239,-1.7246,-1.7272,-1.7272,-1.7272,-1.7273,0,-1.6082,-1.6116,-1.6196,-1.6291,-1.6358,-1.6435,-1.6514,-1.6552,-1.664,-1.6702,-1.6797,-1.6859,-1.6982,-1.7077,-1.7178,-1.7235,-1.7269,-1.7277,-1.7291,-1.7274,-1.7246,-1.7263,-1.7184,-1.7274,-1.7274,-1.7274,-1.7274,-1.7274,-1.6107,-1.6161,-1.6253,-1.6342,-1.6409,-1.6482,-1.6542,-1.6609,-1.6689,-1.6795,-1.6833,-1.6931,-1.7022,-1.7161,-1.7218,-1.7296,-1.7299,-1.7319,-1.7324,-1.7328,-1.7327,-1.7233,-1.7315,-1.7315,-1.7315,-1.7315,-1.7315,0,-1.6159,-1.6222,-1.6303,-1.6412,-1.6482,-1.6509,-1.6598,-1.6655,-1.674,-1.6822,-1.69,-1.701,-1.7103,-1.7188,-1.7285,-1.7331,-1.735,-1.7355,-1.7352,-1.7365,-1.7318,-1.7297,-1.7338,-1.7338,-1.7338,-1.7338,-1.7338,-1.7338,-1.6195,-1.6289,-1.6335,-1.6463,-1.6526,-1.6622,-1.6671,-1.6739,-1.6805,-1.6925,-1.7003,-1.7058,-1.7142,-1.7246,-1.7333,-1.7356,-1.7389,-1.739,-1.7417,-1.7371,-1.7368,-1.7365,-1.7346,-1.7397,-1.7397,-1.7458,-1.7459,-1.7459]}]]